Location: Fontenoy
(49.4072°N, 3.2008°E)
Time: 11:32:15
(UTC+00:00)

Cosmos 1602 Rocket - Pass Details

Date: 15 May 2026
Orbit: 597 x 624 km, 82.5° (Epoch: 9 June)

Event Time Altitude Azimuth Distance (km) Brightness Sun altitude
Rises 20:38:55 0° 353° (N) 2,861 7.9 -10.3°
Reaches altitude 10° 20:41:11 10° 358° (N) 1,956 6.9 -10.5°
Maximum altitude 20:45:25 54° 76° (ENE) 739 3.8 -11.0°
Enters shadow 20:48:47 16° 151° (SSE) 1,614 5.1 -11.4°
